Location: Hopewell Observatory
(38.8698°N, 77.6988°W)
Time: 07:04:50
(UTC-04:00)

Daily predictions for brighter satellites

Satellite Brightness Start Highest point End
(mag) Time Altitude Azimuth Time Altitude Azimuth Time Altitude Azimuth
ATLAS CENTAUR R/B 3.9 20:39:22 10° SSW 20:44:40 53° ESE 20:59:42 10° NE
Cosmos 1674 Rocket 3.9 20:50:38 10° SSW 20:55:05 76° W 20:59:34 10° N
Okean 3 3.7 20:52:28 10° S 20:56:45 78° W 21:01:03 10° N
Cosmos 1975 Rocket 4.0 20:53:03 10° SSE 20:56:46 29° E 21:00:29 10° NNE
Okean 1 Rocket 3.1 20:55:15 10° N 20:59:34 61° E 21:03:50 10° SSE
YAOGAN 6 2.8 20:56:36 10° S 21:00:17 77° WSW 21:03:59 10° NNW
Shenzhou-11 Module 3.3 20:57:35 10° WNW 21:00:22 36° N 21:03:10 10° ENE
Cosmos 1242 Rocket 3.6 21:02:46 10° NNE 21:06:02 30° ENE 21:09:13 10° SE
BREEZE-M R/B 3.9 21:05:45 10° WSW 21:10:52 48° NW 21:13:47 10° NE
Thor Agena Rocket 3.9 21:06:04 10° N 21:11:21 75° WNW 21:16:31 10° SSW
Cosmos 2084 3.4 21:10:42 10° SSW 21:15:02 66° ESE 21:19:09 10° NE
Atlas Centaur 2 2.8 21:14:12 10° WSW 21:17:07 20° SSW 21:19:24 12° SSE
Cosmos 2233 Rocket 4.0 21:13:28 10° S 21:19:34 72° E 21:25:45 10° NNE
Cosmos 1975 2.8 21:18:25 10° N 21:22:28 79° E 21:26:27 10° S
SJ 16-02 3.5 21:24:02 10° NE 21:25:53 12° ENE 21:27:44 10° E
Meteor 1-19 Rocket 4.4 21:21:08 10° S 21:26:57 64° E 21:32:48 10° NNE
Resurs 01 Rocket 2.1 21:22:58 10° S 21:27:19 62° WSW 21:31:41 10° NNW
Spot 2 Rocket 3.5 21:23:06 10° SSE 21:28:09 87° WSW 21:33:13 10° NNW
Cosmos 2360 Rocket 3.5 21:23:40 10° N 21:28:24 26° ENE 21:32:17 13° ESE
deb Kosmos-1763 4.3 21:26:39 10° SSW 21:30:21 76° WNW 21:34:03 10° NNE
Cosmos 1980 Rocket 3.4 21:25:55 10° NW 21:31:09 39° WSW 21:36:22 10° S
Cosmos 468 Rocket 4.2 21:26:36 10° SSW 21:31:53 78° WNW 21:37:08 10° NNE
ATLAS CENTAUR R/B 3.6 21:29:55 10° WNW 21:33:42 25° WSW 21:37:37 10° SSW
ERS-2 3.5 21:30:52 10° S 21:34:18 38° W 21:37:47 10° NNW
Cosmos 1937 Rocket 3.6 21:29:40 10° N 21:34:45 58° ENE 21:38:38 17° SE
BREEZE-M DEB (TANK) 2.0 21:32:33 10° WNW 21:35:12 39° SW 21:36:08 23° SSE
Cosmos 2298 Rocket 4.5 21:30:09 10° N 21:35:15 46° ENE 21:38:57 18° SE
Cosmos 1666 2.7 21:31:52 10° N 21:35:45 84° W 21:39:27 11° S
Helios 1B rocket 4.5 21:36:10 10° ENE 21:37:37 12° E 21:37:37 12° E
Cosmos 1763 Rocket 3.5 21:32:45 10° S 21:38:02 75° ESE 21:43:19 10° NNE
Meteor 2-9 Rocket 4.3 21:36:58 10° N 21:42:13 54° ENE 21:46:08 18° SSE
Meteor 1-12 Rocket 4.4 21:36:55 10° N 21:42:54 83° W 21:48:55 10° S
Cosmos 841 Rocket 3.6 21:38:31 10° S 21:43:37 57° ESE 21:48:47 10° NNE
EPKM 4.3 21:45:34 10° SW 21:47:25 12° SSW 21:48:26 11° S
USA 32 4.3 21:42:34 10° N 21:47:41 52° E 21:51:10 20° SSE
Cosmos 1743 3.1 21:44:30 10° NNW 21:48:17 62° W 21:51:40 12° S
MetOp-A 4.2 21:44:35 17° SSE 21:48:38 65° ENE 21:53:57 10° N
SPOT 5 4.1 21:49:27 18° ESE 21:51:19 24° ENE 21:54:57 10° NNE
Iridium 2 3.7 21:49:31 11° S 21:53:09 81° W 21:57:00 10° N
Cosmos 2333 Rocket 4.4 21:51:47 10° NNE 21:54:00 12° NE 21:56:12 10° ENE
Terra 3.8 21:55:07 13° E 21:56:51 15° ENE 21:59:32 10° NNE
USA 234 3.5 21:50:52 10° NE 21:57:25 74° NW 22:03:56 10° SW
COSMOS 2428 4.4 21:53:29 10° N 21:57:32 20° NE 22:00:36 13° E
Centaur D-1A AC-31 2.7 21:56:16 10° WSW 21:59:51 18° SSW 22:00:41 17° S
Cosmos 1833 4.1 21:58:21 10° SSW 22:04:03 70° ESE 22:09:44 10° NNE
Meteor 2-4 Rocket 3.6 21:59:09 10° S 22:04:34 88° W 22:10:10 10° N
Lacrosse 5 rocket 2.7 22:01:30 10° NNW 22:05:21 30° NE 22:07:25 20° E
Cosmos 2034 Rocket 4.2 22:03:34 22° SSE 22:07:23 51° E 22:13:18 10° NNE
ERS-1 Rocket 3.0 22:07:45 28° SSE 22:10:23 67° ENE 22:15:23 10° N
Cosmos 1464 Rocket 4.0 22:05:11 13° S 22:10:51 77° E 22:17:15 10° N
CSL-04 DEB 4.4 22:12:20 32° SSE 22:14:12 87° ENE 22:18:19 10° NNW
ISS -0.5 22:13:09 10° NW 22:14:40 13° NNW 22:16:11 10° NNE
Cosmos 1025 Rocket 4.0 22:14:39 28° E 22:14:56 28° E 22:18:40 10° NNE
USA 245 3.2 22:16:24 47° SE 22:17:16 67° ENE 22:21:29 10° N
Cosmos 1356 3.4 22:17:03 34° SSW 22:18:26 81° W 22:21:56 10° N
Cosmos 1515 3.6 22:16:59 36° S 22:18:27 80° E 22:22:18 10° N
SPOT 1/Viking Rocket 3.9 22:16:50 31° SE 22:18:53 48° ENE 22:23:49 10° N
ARGOS 3.4 22:15:18 20° S 22:19:02 66° WSW 22:24:27 10° NNW
Cosmos 2322 4.1 22:15:47 10° NNW 22:21:22 51° ENE 22:23:44 32° ESE
H-2A R/B 2.0 22:19:42 27° S 22:22:26 75° WSW 22:27:29 10° NNW
Cosmos 2322 Rocket 2.9 22:17:25 10° NW 22:22:48 48° WSW 22:26:19 21° S
Tiangong 2 2.4 22:20:43 10° WNW 22:23:41 38° N 22:25:09 23° NE
Cosmos 1455 Rocket 3.3 22:20:46 10° NNW 22:25:06 64° W 22:27:13 29° SSW
CENTAUR R/B 2.8 22:19:23 10° SW 22:25:16 69° NW 22:32:04 10° NNE
Cosmos 2237 Rocket 4.4 22:23:56 10° NNE 22:26:09 12° NE 22:28:21 10° ENE
Cosmos 1340 Rocket 3.6 22:25:14 15° SSW 22:28:20 50° WNW 22:32:19 10° N
Cosmos 1891 Rocket 4.5 22:24:10 17° S 22:29:04 87° W 22:35:27 10° N
SL-16 R/B 3.3 22:26:59 10° NW 22:32:10 37° WSW 22:35:44 18° SSW
Cosmos 1125 Rocket 4.0 22:27:07 10° N 22:32:11 47° ENE 22:33:42 36° ESE
Meteor 1-29 4.3 22:29:21 10° NNE 22:31:30 27° ENE 22:31:30 27° ENE
Shenzhou-11 Module 2.5 22:33:38 10° WNW 22:36:03 55° WNW 22:36:03 55° WNW
DMSP B5D2-2 4.1 22:35:18 10° NNE 22:40:37 85° WNW 22:43:34 27° SSW
Helios 1A 2.9 22:41:57 59° S 22:42:44 86° W 22:46:55 10° NNW
Aureole 2 Rocket 3.6 22:40:50 10° NW 22:43:07 28° W 22:43:07 28° W
Cosmos 836 Rocket 4.4 22:43:05 29° SSW 22:45:48 89° WNW 22:51:02 10° NNE
Cosmos 2219 3.5 22:48:54 43° ESE 22:49:28 45° ESE 22:54:54 10° NE
Cosmos 2237 4.1 22:45:29 10° NNW 22:51:15 87° ENE 22:52:57 48° SSE
Okean 2 3.3 22:50:55 65° SSW 22:51:30 84° W 22:55:41 10° N
Meteor 1-15 Rocket 4.4 22:49:33 10° NNW 22:55:15 70° W 22:57:22 39° SSW
CZ-4C R/B 3.3 22:52:44 10° NNW 22:59:52 56° NE 23:03:19 34° ESE
Nimbus 7 Rocket 4.5 22:54:16 10° NNE 23:00:05 58° ESE 23:01:14 49° SE
Cosmos 1356 Rocket 3.4 23:03:27 70° SW 23:03:50 77° W 23:08:09 10° N
SJ 16-02 1.5 23:00:31 10° NNW 23:04:54 62° WSW 23:05:18 59° SW
Okean 1-7 Rocket 3.8 23:05:55 57° ENE 23:05:55 57° ENE 23:10:08 10° NNE
Cosmos 1544 4.0 23:02:27 10° N 23:05:13 40° NE 23:05:13 40° NE
COSMOS 2455 4.2 23:07:46 23° E 23:07:46 23° E 23:11:07 10° NE
Cosmos 2360 Rocket 3.0 23:07:13 10° NW 23:12:31 43° WSW 23:14:04 35° SW
Helios 1B rocket 3.1 23:09:13 10° N 23:13:14 51° WNW 23:13:58 44° WSW
Cosmos 2228 4.4 23:09:53 10° NNE 23:12:59 28° ENE 23:12:59 28° ENE
CZ-2C R/B 3.0 23:09:15 10° NNE 23:14:42 49° E 23:14:47 49° ESE
Cosmos 2333 4.1 23:09:20 10° NNW 23:15:01 84° ENE 23:15:58 63° SE
Landsat 7 4.1 23:14:40 52° SW 23:15:20 57° W 23:20:02 10° NNW
Cosmos 2219 Rocket 2.4 23:11:18 10° NNW 23:16:48 56° ENE 23:17:36 52° E
Cosmos 1726 Rocket 4.3 23:13:39 10° N 23:17:20 42° ENE 23:17:20 42° ENE
Cosmos 1092 Rocket 3.9 23:12:44 10° N 23:19:08 89° WSW 23:20:43 54° S
IGS 5A 3.8 23:21:30 60° W 23:21:30 60° W 23:25:24 10° NNW
Nadezhda 4 Rocket 4.4 23:15:28 10° NNW 23:21:38 57° W 23:23:53 38° SSW
SPOT 5 4.0 23:28:41 28° WSW 23:29:15 29° W 23:33:11 10° NW
Cosmos 2058 Rocket 4.0 23:27:57 10° N 23:31:33 41° NE 23:31:33 41° NE
Terra 2.1 23:34:00 56° WSW 23:34:05 57° W 23:38:47 10° NNW
Cosmos 2333 Rocket 2.1 23:33:30 10° NNW 23:39:14 77° ENE 23:39:38 73° ESE
CZ-2C R/B 3.1 23:41:20 68° SW 23:41:43 71° WSW 23:47:19 10° NNW
COSMOS 2428 2.8 23:36:38 10° NNW 23:42:14 62° WSW 23:42:36 61° SW
SL-16 R/B 4.0 23:39:10 10° N 23:43:15 20° NE 23:44:53 18° ENE
Lacrosse 5 rocket 3.1 23:40:46 10° WNW 23:43:05 25° W 23:43:05 25° W
NOSS 0 Rocket 3.9 23:39:47 10° NNW 23:46:02 69° ENE 23:46:47 63° ESE
Cosmos 2026 Rocket 3.8 23:42:30 10° N 23:48:40 83° W 23:49:21 71° SSW
Cosmos 2279 Rocket 3.8 23:50:12 73° SSE 23:50:46 82° E 23:57:01 10° N
Cosmos 1655 Rocket 4.0 23:46:07 10° N 23:52:30 69° E 23:53:03 66° ESE
Cosmos 1980 3.9 23:47:42 10° NNW 23:53:18 59° ENE 23:53:29 59° ENE
Cosmos 1953 4.3 23:50:07 10° NNE 23:52:04 21° NE 23:52:04 21° NE
